Stations météo

réclame
Mon MeteoGroup
Baltasound, Grande-Bretagne (3002): Température de l'air & dewpoint: 20.11.2020 18:00:00 - 26.11.2020 18:00:00 (GMT)Baltasound, Grande-Bretagne (3002): Température de l'air -20cm: 20.11.2020 18:00:00 - 26.11.2020 18:00:00 (GMT)Baltasound, Grande-Bretagne (3002): Vitesse du vent & gusts: 20.11.2020 18:00:00 - 26.11.2020 18:00:00 (GMT)Baltasound, Grande-Bretagne (3002): Direction du vent: 20.11.2020 18:00:00 - 26.11.2020 18:00:00 (GMT)Baltasound, Grande-Bretagne (3002): reduced air pressure: 20.11.2020 18:00:00 - 26.11.2020 18:00:00 (GMT)Baltasound, Grande-Bretagne (3002): visibility: 20.11.2020 18:00:00 - 26.11.2020 18:00:00 (GMT)Baltasound, Grande-Bretagne (3002): Quantités de précipitations: 20.11.2020 18:00:00 - 26.11.2020 18:00:00 (GMT)
Date & Time tt [°C] td [°C] tt -20cm [°C] ff [km/h] ff [knt] fx [km/h] fx [knt] dd ppp [hPa] vv [km] rr [mm]
26.11.2020 18:00:00 - - - - - - - - - - -
26.11.2020 17:00:00 6,2 4,6 - 22 12 - - S 1014,6 50 0,0
26.11.2020 16:00:00 5,4 4,2 - 22 12 - - SSW 1014,8 45 0,0
26.11.2020 15:00:00 5,1 3,6 - 21 11 - - SSW 1015,1 50 0,0
26.11.2020 14:00:00 5,7 3,8 - 18 10 - - SSW 1015,8 45 0,0
26.11.2020 13:00:00 5,0 2,7 - 18 10 - - S 1015,9 45 0,0
26.11.2020 12:00:00 5,2 2,3 - 15 8 - - S 1016,2 40 0,0
26.11.2020 11:00:00 4,5 1,9 - 15 8 - - S 1016,5 30 0,0
26.11.2020 10:00:00 4,1 1,6 - 13 7 - - SSW 1016,9 35 0,0
26.11.2020 09:00:00 1,8 -0,1 6,2 11 6 - - SSW 1017,0 35 0,0
26.11.2020 08:00:00 3,0 0,1 - 8 4 - - WSW 1016,9 35 0,0
26.11.2020 07:00:00 2,0 -0,9 - 13 7 - - W 1016,6 35 0,0
26.11.2020 06:00:00 2,6 -1,3 - 9 5 - - W 1016,4 50 0,0
26.11.2020 05:00:00 3,7 -0,4 - 11 6 - - WNW 1016,3 30 0,0
26.11.2020 04:00:00 3,9 -0,4 - 16 9 - - WNW 1016,1 30 0,0
26.11.2020 03:00:00 4,1 -0,1 - 18 10 - - NW 1015,9 28 0,0
26.11.2020 02:00:00 4,2 0,4 - 16 9 - - NW 1015,7 25 0,0
26.11.2020 01:00:00 4,2 0,1 - 21 11 - - WNW 1015,4 29 0,0
26.11.2020 00:00:00 4,3 0,5 - 18 10 - - NW 1014,9 24 0,0
25.11.2020 23:00:00 4,3 1,2 - 18 10 - - NW 1014,5 40 0,0
25.11.2020 22:00:00 4,9 2,0 - 16 9 - - NNW 1013,9 45 0,0
25.11.2020 21:00:00 4,7 1,9 - 15 8 - - NW 1013,2 30 0,0
25.11.2020 20:00:00 5,2 2,8 - 15 8 - - NNW 1012,2 30 0,0
25.11.2020 19:00:00 5,5 3,0 - 21 11 - - NNW 1011,4 30 0,0
25.11.2020 18:00:00 5,6 3,6 - 16 9 - - NNW 1010,4 35 0,2
25.11.2020 17:00:00 5,8 4,7 - 18 10 - - NNW 1009,5 10 0,0
25.11.2020 16:00:00 5,5 3,9 - 18 10 - - NNW 1008,5 27 0,0
25.11.2020 15:00:00 5,8 4,5 - 9 5 - - NNW 1007,5 20 0,0
25.11.2020 14:00:00 6,0 4,9 - 8 4 - - NW 1006,4 26 0,0
25.11.2020 13:00:00 6,3 5,3 - 5 3 - - NW 1005,7 35 0,2
25.11.2020 12:00:00 7,3 6,5 - 11 6 - - W 1004,9 6 0,6
25.11.2020 11:00:00 4,4 3,7 - 18 10 - - SW 1004,1 45 0,0
25.11.2020 10:00:00 5,6 4,7 - 16 9 - - SSW 1003,4 40 0,0
25.11.2020 09:00:00 5,5 4,8 6,7 16 9 - - SSW 1002,7 40 0,2
25.11.2020 08:00:00 5,6 4,9 - 9 5 - - SSW 1002,0 10 4,2
25.11.2020 07:00:00 5,1 4,4 - 9 5 - - WSW 1001,3 6 0,2
25.11.2020 06:00:00 4,3 3,6 - 16 9 - - SSW 1000,4 40 0,0
25.11.2020 05:00:00 3,4 2,7 - 16 9 - - SW 1000,0 35 0,0
25.11.2020 04:00:00 3,5 2,6 - 13 7 - - SW 999,4 27 0,6
25.11.2020 03:00:00 4,9 4,5 - 13 7 - - SW 999,3 7 0,2
25.11.2020 02:00:00 5,7 5,2 - 11 6 - - SW 998,8 20 0,4
25.11.2020 01:00:00 5,5 4,9 - 11 6 - - SSW 998,5 8 0,4
25.11.2020 00:00:00 5,6 5,0 - 13 7 - - SSW 998,3 10 0,2
24.11.2020 23:00:00 5,2 4,7 - 11 6 - - SW 998,1 19 0,2
24.11.2020 22:00:00 5,2 4,6 - 11 6 - - SW 997,8 11 0,4
24.11.2020 21:00:00 5,4 4,7 - 8 4 - - W 997,6 11 1,0
24.11.2020 20:00:00 5,6 4,9 - 8 4 - - WSW 998,2 7 1,2
24.11.2020 19:00:00 5,5 4,6 - 9 5 - - SW 998,6 10 0,6
24.11.2020 18:00:00 5,8 4,2 - 13 7 - - SW 998,7 16 0,2
24.11.2020 17:00:00 6,7 4,3 - 13 7 - - SW 999,0 19 0,0
24.11.2020 16:00:00 7,1 5,1 - 13 7 - - SSW 999,7 18 0,0
24.11.2020 15:00:00 7,5 5,2 - 18 10 - - SW 999,7 17 0,0
24.11.2020 14:00:00 7,7 5,3 - 18 10 - - SSW 1000,1 21 0,0
24.11.2020 13:00:00 7,6 5,8 - 21 11 - - SSW 1000,9 13 0,0
24.11.2020 12:00:00 6,7 5,0 - 24 13 - - SW 1001,2 14 0,6
24.11.2020 11:00:00 6,9 4,9 - 18 10 - - SW 1001,0 22 0,2
24.11.2020 10:00:00 6,2 4,5 - 18 10 - - SW 1000,8 19 0,0
24.11.2020 09:00:00 6,0 3,9 6,7 16 9 - - SW 1000,5 16 0,2
24.11.2020 08:00:00 5,9 4,3 - 21 11 - - SSW 1000,2 27 0,2
24.11.2020 07:00:00 6,1 4,4 - 18 10 - - SW 999,9 18 0,0
24.11.2020 06:00:00 6,8 5,4 - 24 13 - - SSW 999,3 14 0,0
24.11.2020 05:00:00 7,3 6,2 - 24 13 - - SSW 999,0 11 0,0
24.11.2020 04:00:00 5,9 4,6 - 21 11 - - SSW 999,1 18 0,0
24.11.2020 03:00:00 6,7 4,5 - 34 18 52 28 SW 999,1 35 0,2
24.11.2020 02:00:00 7,7 6,3 - 29 16 - - SSW 999,2 11 0,0
24.11.2020 01:00:00 7,1 5,3 - 22 12 - - SSW 999,6 10 0,0
24.11.2020 00:00:00 6,9 5,2 - 21 11 - - SSW 999,8 11 0,0
23.11.2020 23:00:00 6,5 4,3 - 18 10 - - SW 999,7 14 0,0
23.11.2020 22:00:00 7,1 5,0 - 24 13 - - SW 999,8 12 0,0
23.11.2020 21:00:00 8,1 6,1 - 35 19 50 27 SSW 999,6 13 0,0
23.11.2020 20:00:00 8,2 6,4 - 35 19 50 27 SSW 999,4 15 0,0
23.11.2020 19:00:00 8,0 6,7 - 37 20 55 30 SSW 999,8 12 0,0
23.11.2020 18:00:00 7,9 6,7 - 41 22 67 36 S 1000,3 11 0,4
23.11.2020 17:00:00 7,5 6,6 - 39 21 59 32 S 1001,2 8 0,8
23.11.2020 16:00:00 7,0 6,0 - 41 22 57 31 SSW 1002,4 6 1,8
23.11.2020 15:00:00 7,7 6,1 - 39 21 55 30 SSW 1003,3 5 0,6
23.11.2020 14:00:00 8,6 7,0 - 35 19 50 27 S 1004,0 20 0,0
23.11.2020 13:00:00 8,6 7,1 - 29 16 50 27 SSW 1005,2 16 0,0
23.11.2020 12:00:00 8,1 7,2 - 37 20 54 29 SSW 1006,3 22 0,0
23.11.2020 11:00:00 7,8 6,7 - 41 22 54 29 S 1007,3 10 0,4
23.11.2020 10:00:00 6,6 5,3 - 21 11 - - S 1008,3 13 1,0
23.11.2020 09:00:00 6,5 4,9 6,7 16 9 - - S 1009,1 15 0,2
23.11.2020 08:00:00 5,8 4,2 - 18 10 - - S 1009,8 29 0,0
23.11.2020 07:00:00 4,2 2,8 - 15 8 - - SW 1010,3 25 0,0
23.11.2020 06:00:00 5,6 2,8 - 18 10 - - WSW 1010,4 24 0,0
23.11.2020 05:00:00 6,6 3,4 - 24 13 - - W 1010,7 27 0,0
23.11.2020 04:00:00 5,5 2,9 - 21 11 - - W 1010,7 15 0,2
23.11.2020 03:00:00 6,5 3,0 - 28 15 - - W 1010,5 30 0,0
23.11.2020 02:00:00 5,9 2,6 - 24 13 - - W 1010,3 35 0,0
23.11.2020 01:00:00 5,7 2,6 - 31 17 - - W 1010,1 21 0,0
23.11.2020 00:00:00 5,7 2,7 - 29 16 - - W 1009,8 29 0,0
22.11.2020 23:00:00 5,6 3,7 - 24 13 54 29 W 1009,5 30 0,4
22.11.2020 22:00:00 6,0 2,4 - 29 16 46 25 W 1009,2 27 0,0
22.11.2020 21:00:00 5,8 2,6 - 29 16 - - W 1008,7 30 0,0
22.11.2020 20:00:00 5,2 2,7 - 24 13 - - W 1008,7 13 0,2
22.11.2020 19:00:00 5,2 2,8 - 21 11 57 31 WNW 1008,4 25 0,0
22.11.2020 18:00:00 6,8 3,0 - 34 18 50 27 W 1008,0 30 0,0
22.11.2020 17:00:00 6,7 2,9 - 31 17 50 27 W 1007,6 27 0,0
22.11.2020 16:00:00 6,4 3,4 - 31 17 54 29 W 1007,6 8 0,0
22.11.2020 15:00:00 7,0 3,1 - 37 20 59 32 W 1007,3 21 0,0
22.11.2020 14:00:00 7,1 3,8 - 41 22 55 30 W 1007,0 20 0,2
22.11.2020 13:00:00 6,4 4,4 - 31 17 52 28 WNW 1006,6 16 0,8
22.11.2020 12:00:00 7,4 2,5 - 37 20 54 29 W 1005,9 24 0,0
22.11.2020 11:00:00 6,9 3,4 - 37 20 61 33 WNW 1005,1 18 0,0
22.11.2020 10:00:00 7,1 3,2 - 42 23 63 34 WNW 1004,2 19 0,0
22.11.2020 09:00:00 6,7 3,2 6,7 46 25 65 35 WNW 1003,1 18 0,0
22.11.2020 08:00:00 6,9 3,2 - 50 27 68 37 WNW 1001,6 17 0,2
22.11.2020 07:00:00 6,5 4,1 - 44 24 70 38 WNW 1000,2 5 0,8
22.11.2020 06:00:00 7,5 3,6 - 48 26 70 38 WNW 998,4 17 0,0
22.11.2020 05:00:00 7,7 3,9 - 50 27 68 37 WNW 996,8 15 0,0
22.11.2020 04:00:00 7,6 5,0 - 42 23 67 36 W 995,3 17 0,0
22.11.2020 03:00:00 7,1 5,3 - 46 25 78 42 W 995,0 8 1,0
22.11.2020 02:00:00 6,1 4,2 - 65 35 89 48 W 995,2 3,9 0,6
22.11.2020 01:00:00 6,4 4,4 - 63 34 98 53 W 995,2 3,6 0,8
22.11.2020 00:00:00 7,7 4,2 - 57 31 87 47 W 995,2 8 0,0
21.11.2020 23:00:00 7,7 3,8 - 57 31 85 46 WSW 995,3 11 0,2
21.11.2020 22:00:00 7,4 3,8 - 61 33 81 44 WSW 995,3 11 0,2
21.11.2020 21:00:00 5,6 3,1 - 59 32 91 49 WSW 995,7 11 0,2
21.11.2020 20:00:00 7,1 3,2 - 61 33 91 49 WSW 995,5 10 0,0
21.11.2020 19:00:00 6,5 3,7 - 57 31 109 59 WSW 995,5 13 0,6
21.11.2020 18:00:00 6,9 3,1 - 63 34 91 49 W 995,7 10 0,0
21.11.2020 17:00:00 7,1 3,2 - 57 31 98 53 WSW 995,3 9 0,4
21.11.2020 16:00:00 7,2 2,8 - 55 30 94 51 WSW 995,2 10 0,0
21.11.2020 15:00:00 7,6 2,1 - 68 37 89 48 WSW 995,3 13 0,2
21.11.2020 14:00:00 7,0 2,9 - 63 34 96 52 WSW 995,5 10 0,0
21.11.2020 13:00:00 7,2 2,4 - 63 34 87 47 WSW 995,5 10 0,4
21.11.2020 12:00:00 6,0 3,9 - 54 29 94 51 WSW 995,5 2,2 1,0
21.11.2020 11:00:00 7,8 3,0 - 50 27 96 52 WSW 995,3 9 0,0
21.11.2020 10:00:00 8,4 2,2 - 68 37 96 52 WSW 994,9 9 0,0
21.11.2020 09:00:00 8,4 3,2 6,7 54 29 89 48 WSW 994,8 8 0,0
21.11.2020 08:00:00 8,1 2,6 - 65 35 98 53 WSW 994,6 8 0,0
21.11.2020 07:00:00 7,6 4,5 - 59 32 98 53 WSW 994,6 8 0,2
21.11.2020 06:00:00 7,0 3,9 - 61 33 94 51 WSW 994,8 10 0,6
21.11.2020 05:00:00 8,3 4,3 - 65 35 91 49 WSW 994,8 9 0,4
21.11.2020 04:00:00 8,3 3,6 - 61 33 96 52 WSW 994,6 9 0,0
21.11.2020 03:00:00 8,8 4,2 - 68 37 98 53 WSW 995,3 7 0,0
21.11.2020 02:00:00 8,8 4,7 - 63 34 89 48 WSW 995,7 9 0,6
21.11.2020 01:00:00 9,0 5,6 - 59 32 87 47 WSW 996,0 8 0,4
21.11.2020 00:00:00 9,9 6,1 - 61 33 93 50 WSW 995,9 7 0,2
20.11.2020 23:00:00 10,3 6,6 - 63 34 93 50 WSW 995,9 7 0,0
20.11.2020 22:00:00 10,5 8,7 - 55 30 80 43 SW 995,9 3,5 0,2
20.11.2020 21:00:00 10,5 9,5 - 52 28 72 39 SW 996,8 14 0,0
20.11.2020 20:00:00 9,7 9,4 - 50 27 72 39 SSW 997,8 5 0,4
20.11.2020 19:00:00 9,1 8,9 - 50 27 76 41 S 1000,0 5 3,2
20.11.2020 18:00:00 8,7 8,3 - 55 30 78 42 S 1002,0 2,3 3,0

tt = Température de l'air
td = dewpoint
tt -20cm = Température de l'air -20cm
ff = Vitesse du vent
fx = gusts
dd = Direction du vent
ppp = reduced air pressure
vv = visibility
rr = Quantités de précipitations

stations d'obs. à proximité